Location: Unspecified
(33.6682°S, 0.0000°E)
Time: 06:07:23
(UTC+00:00)

Vanguard 2 Rocket - Pass Details

Date: 25 June 2019
Orbit: 554 x 3326 km, 32.9° (Epoch: 18 July)

Event Time Altitude Azimuth Distance (km) Brightness Sun altitude
Rises 08:10:04 0° 295° (WNW) 7,195 11.2 10.6°
Reaches altitude 10° 08:15:15 10° 297° (WNW) 5,982 10.8 11.4°
Maximum altitude 08:32:43 72° 16° (NNE) 2,288 9.4 14.2°
Drops below altitude 10° 08:42:47 10° 98° (E) 3,664 10.7 15.7°
Sets 08:45:11 0° 100° (E) 4,360 10.9 16.1°
